Location: Varese
(45.8000°N, 8.8330°E)
Time: 08:28:49
(UTC+02:00)

ISS - Pass Details

Date: 16 May 2021
Orbit: 419 x 422 km, 51.6° (Epoch: 24 June)

Event Time Altitude Azimuth Distance (km) Brightness Sun altitude
Rises 22:52:55 0° 251° (WSW) 2,399 0.3 -16.7°
Reaches altitude 10° 22:55:02 10° 256° (WSW) 1,540 -0.6 -17.0°
Maximum altitude 22:58:28 60° 337° (NNW) 507 -3.1 -17.3°
Drops below altitude 10° 23:01:56 10° 58° (ENE) 1,562 -0.9 -17.7°
Sets 23:04:06 0° 62° (ENE) 2,438 0.1 -17.9°
